Location: Bannatyne
(13.0833°N, 59.5333°W)
Time: 08:40:47
(UTC+00:00)

Vanguard 2 Rocket - Pass Details

Date: 26 January 2020
Orbit: 554 x 3326 km, 32.9° (Epoch: 08 April)

Event Time Altitude Azimuth Distance (km) Brightness Sun altitude
Rises 15:12:16 0° 298° (WNW) 4,542 10.2 55.1°
Reaches altitude 10° 15:14:46 10° 297° (WNW) 3,848 9.9 55.3°
Maximum altitude 15:25:39 76° 213° (SSW) 2,417 10.4 56.3°
Drops below altitude 10° 15:44:05 10° 131° (SE) 6,117 11.7 57.5°
Sets 15:49:16 0° 129° (SE) 7,272 11.8 57.8°
